Regional Weather Roundup
Issued by NWS Cleveland, OH

Home | Current Version | Previous Version | Graphics & Text | Print | Product List | Glossary On
Versions: 1 2 3 4 5 6 7 8 9 10 11 12 13 14 15 16 17 18 19 20 21 22 23 24 25 26 27 28 29 30 31 32 33 34 35 36 37 38 39 40 41 42 43 44 45 46 47 48 49 50
000
ASUS41 KCLE 050710
RWRCLE
OHIO REGIONAL WEATHER ROUNDUP
NATIONAL WEATHER SERVICE WILMINGTON, OH
300 AM EDT THU MAY 05 2016

NOTE: "FAIR" INDICATES FEW OR NO CLOUDS BELOW 12,000 FEET WITH NO
SIGNIFICANT WEATHER AND/OR OBSTRUCTIONS TO VISIBILITY.

OHZ001>008-015>018-024>027-034-035-043-044-050800-
   NORTHWEST OHIO

CITY           SKY/WX    TMP DP  RH WIND       PRES   REMARKS
DEFIANCE       CLOUDY    43  37  79 N5        29.75S
FINDLAY        CLOUDY    43  37  79 NW5       29.72F
TOLEDO EXPRESS LGT RAIN  43  41  93 W6        29.73S
TOLEDO EXEC    CLOUDY    45  42  89 NW8       29.73F
LIMA           CLOUDY    40  38  93 N3        29.73S
$$

OHZ009>014-019>023-028>033-038-089-050800-
   NORTHEAST OHIO

CITY           SKY/WX    TMP DP  RH WIND       PRES   REMARKS
CLE-HOPKINS    LGT RAIN  49  47  93 NW6       29.72S
CLE-LAKEFRONT  CLOUDY    50  47  89 W12       29.69F
CUY CO. ARPT   NOT AVBL
LORAIN-ELYRIA  LGT RAIN  47  44  90 NW8       29.70F
ASHTABULA      CLOUDY    48  44  86 SW3       29.68S
AKRON-CANTON   LGT RAIN  49  46  90 N6        29.68S FOG
WOOSTER        LGT RAIN  45  44  97 NW10      29.69S
MANSFIELD      LGT RAIN  43  43 100 W3        29.69F
YOUNGSTOWN     LGT RAIN  48  46  93 CALM      29.67F
$$

OHZ042-051>053-060>062-070>072-077>081-050800-
  SOUTHWEST OHIO

CITY           SKY/WX    TMP DP  RH WIND       PRES   REMARKS
CINC-COVINGTON LGT RAIN  43  39  87 NW5       29.72F
CINC-LUNKEN    CLOUDY    44  39  82 W6        29.74F
HAMILTON       CLOUDY    43  39  86 NW5       29.74F
DAYTON         CLOUDY    40  38  93 N6        29.73F
WRIGHT-PAT AFB CLOUDY    42  38  84 NW7       29.72F
DAYTON GENERAL CLOUDY    41  36  82 NW6       29.72S
WILMINGTON     CLOUDY    43  36  76 NW6       29.71S
$$

OHZ036-037-039>041-045>050-054>059-063>069-073>076-082>088-050800-
  CENTRAL AND SOUTHEAST OHIO

CITY           SKY/WX    TMP DP  RH WIND       PRES   REMARKS
COLUMBUS       MOCLDY    42  37  82 N5        29.70F
OSU AIRPORT    FAIR      40  34  79 NW6       29.71F
BOLTON FIELD   CLOUDY    43  37  79 NW5       29.71F
RICKENBACK AFB CLOUDY    44  37  76 N5        29.70F
NEWARK         FAIR      43  36  76 NW5       29.69F
MARION         CLOUDY    43  39  86 NW3       29.72F
LANCASTER      FAIR      39  36  89 N3        29.70F
ZANESVILLE     CLOUDY    48  43  82 NW8       29.69S
NEW PHILLY     LGT RAIN  48  46  93 NW5       29.68F
$$



USA.gov is the U.S. government's official web portal to all federal, state and local government web resources and services.